RYS3245 LGRP-EPKT

Flight info

Callsign RYS3245
Flight time N/A
Altitude 36000
Route VANES UM601 ADESO UN133 PEREN UL863 EVIVI L863 OKANA DCT ESIRI DCT PARAK DCT LITKU DCT REDSI/N0470F370 DCT MEBAN
Aircraft B738/M-SDE2E3FGHIRWXY/LB1

Departure

Time N/A
Airport Rhodes International Airport "Diagoras" (LGRP)

Arrival

Time 2026-04-29 19:12
Airport Katowice Wojciech Korfanty International Airport (EPKT)
Time Latitude Longitude Altitude Speed Heading
2026-04-29 17:48 42.65218 22.62547 36077 ft 424 kts 328°
2026-04-29 17:49 42.67857 22.60749 36071 ft 424 kts 328°
2026-04-29 17:49 42.73125 22.57154 36104 ft 424 kts 328°
2026-04-29 17:50 42.78289 22.53625 36083 ft 423 kts 328°
2026-04-29 17:50 42.83542 22.50029 36089 ft 422 kts 328°
2026-04-29 17:51 42.88758 22.46470 36077 ft 422 kts 328°
2026-04-29 17:51 42.94009 22.42907 36116 ft 421 kts 328°
2026-04-29 17:52 42.99256 22.39341 36090 ft 421 kts 328°
2026-04-29 17:52 43.04490 22.35774 36086 ft 420 kts 328°
2026-04-29 17:53 43.09710 22.32205 36087 ft 419 kts 328°
2026-04-29 17:53 43.14919 22.28637 36090 ft 418 kts 328°
2026-04-29 17:54 43.20119 22.25069 36107 ft 418 kts 328°
2026-04-29 17:54 43.25311 22.21501 36122 ft 418 kts 328°
2026-04-29 17:55 43.30508 22.17919 36124 ft 418 kts 328°
2026-04-29 17:55 43.35701 22.14334 36118 ft 418 kts 328°
2026-04-29 17:56 43.40904 22.10736 36138 ft 419 kts 328°
2026-04-29 17:56 43.46107 22.07132 36122 ft 418 kts 328°
2026-04-29 17:57 43.51294 22.03532 36125 ft 417 kts 328°
2026-04-29 17:57 43.56480 21.99925 36130 ft 417 kts 328°
2026-04-29 17:58 43.61660 21.96315 36141 ft 417 kts 328°
2026-04-29 17:58 43.66839 21.92699 36143 ft 417 kts 328°
2026-04-29 17:59 43.71977 21.89104 36131 ft 416 kts 328°
2026-04-29 17:59 43.77144 21.85483 36133 ft 416 kts 328°
2026-04-29 18:00 43.82307 21.81857 36141 ft 416 kts 327°
2026-04-29 18:00 43.87469 21.78225 36154 ft 416 kts 328°
2026-04-29 18:01 43.92626 21.74588 36146 ft 416 kts 327°
2026-04-29 18:01 43.97779 21.70949 36160 ft 415 kts 327°
2026-04-29 18:02 44.02932 21.67300 36156 ft 416 kts 327°
2026-04-29 18:02 44.08080 21.63649 36198 ft 416 kts 327°
2026-04-29 18:03 44.13203 21.60009 36174 ft 416 kts 327°
2026-04-29 18:03 44.18363 21.56334 36160 ft 416 kts 327°
2026-04-29 18:04 44.23511 21.52662 36157 ft 416 kts 327°
2026-04-29 18:04 44.28659 21.48981 36169 ft 415 kts 327°
2026-04-29 18:05 44.33803 21.45297 36176 ft 416 kts 327°
2026-04-29 18:05 44.38942 21.41607 36177 ft 415 kts 327°
2026-04-29 18:06 44.44084 21.37907 36165 ft 415 kts 327°
2026-04-29 18:06 44.49218 21.34204 36164 ft 415 kts 327°
2026-04-29 18:07 44.54343 21.30500 36196 ft 414 kts 327°
2026-04-29 18:07 44.59468 21.26789 36178 ft 414 kts 327°
2026-04-29 18:08 44.64589 21.23074 36145 ft 414 kts 327°
2026-04-29 18:08 44.69697 21.19360 36160 ft 413 kts 327°
2026-04-29 18:09 44.74800 21.15642 36165 ft 413 kts 327°
2026-04-29 18:09 44.79902 21.11918 36167 ft 413 kts 327°
2026-04-29 18:10 44.84996 21.08192 36168 ft 413 kts 327°
2026-04-29 18:10 44.90095 21.04455 36168 ft 413 kts 327°
2026-04-29 18:11 44.95161 21.00734 36178 ft 413 kts 327°
2026-04-29 18:11 45.00266 20.96978 36170 ft 414 kts 327°
2026-04-29 18:12 45.05374 20.93212 36177 ft 414 kts 327°
2026-04-29 18:12 45.10475 20.89444 36169 ft 414 kts 327°
2026-04-29 18:13 45.15577 20.85666 36172 ft 414 kts 327°
2026-04-29 18:13 45.20676 20.81884 36172 ft 413 kts 327°
2026-04-29 18:14 45.25773 20.78095 36213 ft 413 kts 327°
2026-04-29 18:14 45.30872 20.74297 36180 ft 414 kts 327°
2026-04-29 18:15 45.35965 20.70495 36174 ft 414 kts 327°
2026-04-29 18:15 45.41062 20.66684 36176 ft 414 kts 327°
2026-04-29 18:16 45.46158 20.62864 36174 ft 414 kts 327°
2026-04-29 18:16 45.51245 20.59044 36200 ft 414 kts 327°
2026-04-29 18:17 45.56341 20.55209 36181 ft 414 kts 327°
2026-04-29 18:17 45.61434 20.51369 36176 ft 414 kts 327°
2026-04-29 18:18 45.66523 20.47523 36176 ft 414 kts 327°
2026-04-29 18:18 45.71613 20.43669 36178 ft 414 kts 327°
2026-04-29 18:19 45.76696 20.39811 36186 ft 414 kts 327°
2026-04-29 18:19 45.81790 20.35937 36183 ft 415 kts 327°
2026-04-29 18:20 45.86856 20.32077 36175 ft 415 kts 327°
2026-04-29 18:20 45.91949 20.28188 36184 ft 415 kts 327°
2026-04-29 18:21 45.97044 20.24290 36188 ft 415 kts 326°
2026-04-29 18:21 46.02147 20.20376 36185 ft 416 kts 327°
2026-04-29 18:22 46.07249 20.16455 36186 ft 416 kts 327°
2026-04-29 18:22 46.12361 20.12519 36197 ft 417 kts 327°
2026-04-29 18:23 46.17717 20.09181 36196 ft 425 kts 338°
2026-04-29 18:23 46.23602 20.07619 36212 ft 433 kts 345°
2026-04-29 18:24 46.29564 20.06309 36199 ft 433 kts 345°
2026-04-29 18:24 46.35520 20.04970 36192 ft 433 kts 345°
2026-04-29 18:25 46.41475 20.03600 36193 ft 433 kts 344°
2026-04-29 18:25 46.47429 20.02215 36199 ft 434 kts 345°
2026-04-29 18:26 46.53397 20.00823 36205 ft 434 kts 345°
2026-04-29 18:26 46.59361 19.99429 36198 ft 434 kts 345°
2026-04-29 18:27 46.65327 19.98032 36202 ft 434 kts 345°
2026-04-29 18:27 46.71294 19.96631 36210 ft 435 kts 345°
2026-04-29 18:28 46.77271 19.95225 36207 ft 435 kts 345°
2026-04-29 18:28 46.83205 19.93826 36196 ft 435 kts 345°
2026-04-29 18:29 46.89180 19.92414 36213 ft 435 kts 345°
2026-04-29 18:29 46.95163 19.90996 36218 ft 436 kts 345°
2026-04-29 18:30 47.01158 19.89573 36204 ft 436 kts 345°
2026-04-29 18:30 47.07148 19.88148 36214 ft 436 kts 345°
2026-04-29 18:31 47.13143 19.86719 36214 ft 436 kts 345°
2026-04-29 18:31 47.18170 19.85518 36218 ft 437 kts 345°
2026-04-29 18:32 47.24127 19.84091 36222 ft 437 kts 345°
2026-04-29 18:32 47.33162 19.81914 36219 ft 437 kts 345°
2026-04-29 18:33 47.39130 19.80480 36225 ft 438 kts 346°
2026-04-29 18:33 47.45152 19.79029 36227 ft 439 kts 346°
2026-04-29 18:34 47.50200 19.77808 36224 ft 439 kts 346°
2026-04-29 18:34 47.57213 19.76108 36227 ft 439 kts 346°
2026-04-29 18:35 47.63256 19.74638 36244 ft 441 kts 346°
2026-04-29 18:35 47.69308 19.73163 36229 ft 441 kts 346°
2026-04-29 18:36 47.75343 19.71689 36206 ft 437 kts 346°
2026-04-29 18:36 47.81308 19.70231 36268 ft 434 kts 347°
2026-04-29 18:37 47.87258 19.68771 36239 ft 433 kts 347°
2026-04-29 18:37 47.93201 19.67309 36242 ft 432 kts 347°
2026-04-29 18:38 47.99128 19.65847 36248 ft 432 kts 347°
2026-04-29 18:38 48.05062 19.64380 36288 ft 433 kts 347°
2026-04-29 18:39 48.11019 19.62903 36265 ft 435 kts 347°
2026-04-29 18:39 48.13975 19.62169 36072 ft 440 kts 347°
2026-04-29 18:39 48.16996 19.61418 35832 ft 441 kts 347°
2026-04-29 18:40 48.20015 19.60669 35591 ft 437 kts 347°
2026-04-29 18:40 48.23011 19.59992 35334 ft 434 kts 351°
2026-04-29 18:40 48.26039 19.59870 35102 ft 436 kts 357°
2026-04-29 18:40 48.29066 19.60005 34907 ft 435 kts 357°
2026-04-29 18:41 48.37552 19.56890 34225 ft 420 kts 328°
2026-04-29 18:41 48.40080 19.54679 33959 ft 421 kts 326°
2026-04-29 18:42 48.42594 19.52399 33694 ft 423 kts 326°
2026-04-29 18:42 48.45113 19.50094 33431 ft 424 kts 326°
2026-04-29 18:42 48.47633 19.47784 33165 ft 424 kts 326°
2026-04-29 18:42 48.50156 19.45471 32915 ft 425 kts 326°
2026-04-29 18:43 48.52681 19.43163 32661 ft 425 kts 326°
2026-04-29 18:43 48.55206 19.40854 32451 ft 425 kts 326°
2026-04-29 18:43 48.57735 19.38511 32317 ft 426 kts 326°
2026-04-29 18:43 48.60255 19.36145 32289 ft 427 kts 326°
2026-04-29 18:44 48.65281 19.31395 32287 ft 426 kts 326°
2026-04-29 18:44 48.70392 19.26868 32191 ft 430 kts 337°
2026-04-29 18:45 48.73354 19.26043 31938 ft 439 kts 355°
2026-04-29 18:45 48.76416 19.26473 31711 ft 446 kts
2026-04-29 18:45 48.79398 19.27859 31518 ft 451 kts 14°
2026-04-29 18:45 48.82341 19.29507 31271 ft 451 kts 15°
2026-04-29 18:46 48.85274 19.31188 31034 ft 450 kts 15°
2026-04-29 18:46 48.88196 19.32855 30799 ft 448 kts 15°
2026-04-29 18:46 48.91116 19.34502 30573 ft 447 kts 14°
2026-04-29 18:46 48.94036 19.36130 30326 ft 447 kts 14°
2026-04-29 18:47 48.96924 19.37726 30041 ft 447 kts 14°
2026-04-29 18:47 48.99850 19.39337 29722 ft 447 kts 14°
2026-04-29 18:47 49.02794 19.40954 29211 ft 452 kts 15°
2026-04-29 18:47 49.05768 19.42586 28614 ft 457 kts 15°
2026-04-29 18:48 49.08767 19.44238 28030 ft 459 kts 15°
2026-04-29 18:48 49.11777 19.45901 27449 ft 460 kts 15°
2026-04-29 18:48 49.14787 19.47569 26883 ft 460 kts 15°
2026-04-29 18:48 49.17789 19.49235 26317 ft 460 kts 15°
2026-04-29 18:49 49.20793 19.50904 25774 ft 459 kts 15°
2026-04-29 18:49 49.23772 19.52561 25258 ft 451 kts 17°
2026-04-29 18:49 49.26689 19.54187 24733 ft 442 kts 17°
2026-04-29 18:49 49.29559 19.55788 24214 ft 437 kts 17°
2026-04-29 18:50 49.32414 19.57378 23656 ft 435 kts 17°
2026-04-29 18:50 49.35307 19.58650 23005 ft 429 kts
2026-04-29 18:50 49.38258 19.58795 22467 ft 422 kts 353°
2026-04-29 18:50 49.41125 19.58053 21920 ft 416 kts 344°
2026-04-29 18:51 49.43843 19.56617 21369 ft 412 kts 339°
2026-04-29 18:51 49.46522 19.55098 20842 ft 409 kts 341°
2026-04-29 18:51 49.49193 19.53601 20335 ft 407 kts 341°
2026-04-29 18:51 49.51851 19.52124 19831 ft 405 kts 341°
2026-04-29 18:52 49.54495 19.50663 19336 ft 403 kts 341°
2026-04-29 18:52 49.57098 19.49230 18849 ft 401 kts 342°
2026-04-29 18:52 49.59720 19.47788 18325 ft 399 kts 342°
2026-04-29 18:52 49.62328 19.46354 17757 ft 397 kts 342°
2026-04-29 18:53 49.64919 19.44929 17259 ft 393 kts 342°
2026-04-29 18:53 49.67463 19.43526 17003 ft 385 kts 342°
2026-04-29 18:53 49.69976 19.42139 16733 ft 386 kts 343°
2026-04-29 18:53 49.72552 19.40719 16495 ft 390 kts 342°
2026-04-29 18:54 49.75101 19.39311 16218 ft 388 kts 342°
2026-04-29 18:54 49.77602 19.37927 15957 ft 386 kts 342°
2026-04-29 18:54 49.80121 19.36530 15706 ft 384 kts 342°
2026-04-29 18:54 49.82634 19.35133 15466 ft 382 kts 343°
2026-04-29 18:55 49.85137 19.33742 15410 ft 384 kts 343°
2026-04-29 18:55 49.87650 19.32347 15396 ft 383 kts 343°
2026-04-29 18:55 49.90160 19.30951 15396 ft 383 kts 343°
2026-04-29 18:55 49.92661 19.29558 15388 ft 383 kts 343°
2026-04-29 18:56 49.95170 19.28159 15395 ft 383 kts 343°
2026-04-29 18:56 49.97675 19.26759 15386 ft 383 kts 344°
2026-04-29 18:56 50.00188 19.25355 15396 ft 384 kts 344°
2026-04-29 18:56 50.02703 19.23948 15147 ft 383 kts 344°
2026-04-29 18:57 50.05190 19.22553 15114 ft 380 kts 344°
2026-04-29 18:57 50.07643 19.21174 14695 ft 368 kts 344°
2026-04-29 18:57 50.10034 19.19829 13677 ft 364 kts 343°
2026-04-29 18:57 50.12410 19.18493 12736 ft 360 kts 343°
2026-04-29 18:58 50.14745 19.17180 12162 ft 356 kts 343°
2026-04-29 18:58 50.17052 19.15880 11637 ft 351 kts 343°
2026-04-29 18:58 50.19304 19.14609 11469 ft 336 kts 343°
2026-04-29 18:58 50.21473 19.13384 11315 ft 327 kts 343°
2026-04-29 18:59 50.23587 19.12190 11157 ft 319 kts 343°
2026-04-29 18:59 50.25650 19.11024 11030 ft 311 kts 343°
2026-04-29 18:59 50.27645 19.09895 10904 ft 300 kts 343°
2026-04-29 18:59 50.29575 19.08802 10771 ft 289 kts 343°
2026-04-29 19:00 50.31434 19.07748 10650 ft 280 kts 343°
2026-04-29 19:00 50.33234 19.06727 10540 ft 271 kts 343°
2026-04-29 19:00 50.34977 19.05736 10424 ft 262 kts 343°
2026-04-29 19:00 50.36666 19.04748 10195 ft 259 kts 338°
2026-04-29 19:01 50.38063 19.02993 9953 ft 262 kts 308°
2026-04-29 19:01 50.38802 19.00395 9722 ft 264 kts 285°
2026-04-29 19:01 50.38921 18.97509 9490 ft 265 kts 273°
2026-04-29 19:01 50.38896 18.94626 9127 ft 267 kts 272°
2026-04-29 19:02 50.38874 18.91746 8950 ft 262 kts 273°
2026-04-29 19:02 50.38860 18.89824 8757 ft 261 kts 273°
2026-04-29 19:02 50.38844 18.86087 8515 ft 253 kts 274°
2026-04-29 19:02 50.38836 18.83378 8366 ft 247 kts 274°
2026-04-29 19:03 50.38830 18.80663 8177 ft 249 kts 274°
2026-04-29 19:03 50.38823 18.77950 8048 ft 249 kts 274°
2026-04-29 19:03 50.38817 18.75219 7790 ft 251 kts 274°
2026-04-29 19:03 50.38811 18.72512 7546 ft 246 kts 274°
2026-04-29 19:04 50.38805 18.69847 7200 ft 246 kts 274°
2026-04-29 19:04 50.39084 18.67212 6749 ft 242 kts 301°
2026-04-29 19:04 50.40142 18.65267 6225 ft 237 kts 332°
2026-04-29 19:04 50.41703 18.64504 5653 ft 235 kts
2026-04-29 19:05 50.43213 18.65092 5537 ft 221 kts 31°
2026-04-29 19:05 50.44335 18.66630 5373 ft 212 kts 53°
2026-04-29 19:05 50.45018 18.68625 5158 ft 203 kts 63°
2026-04-29 19:05 50.45596 18.70584 4925 ft 192 kts 63°
2026-04-29 19:06 50.46131 18.72398 4823 ft 176 kts 62°
2026-04-29 19:06 50.46634 18.74100 4635 ft 166 kts 62°
2026-04-29 19:06 50.47538 18.77420 4268 ft 168 kts 76°
2026-04-29 19:07 50.47644 18.79243 4108 ft 165 kts 84°
2026-04-29 19:07 50.47663 18.80412 4030 ft 161 kts 84°
2026-04-29 19:07 50.47674 18.82749 3848 ft 158 kts 85°
2026-04-29 19:07 50.47671 18.84406 3639 ft 145 kts 85°
2026-04-29 19:08 50.47666 18.85921 3473 ft 141 kts 85°
2026-04-29 19:08 50.47662 18.87451 3291 ft 141 kts 85°
2026-04-29 19:08 50.47656 18.88974 3118 ft 138 kts 85°
2026-04-29 19:08 50.47651 18.90490 2921 ft 139 kts 85°
2026-04-29 19:09 50.47646 18.92004 2731 ft 138 kts 86°
2026-04-29 19:09 50.47640 18.93508 2545 ft 137 kts 86°
2026-04-29 19:09 50.47635 18.95004 2364 ft 137 kts 86°
2026-04-29 19:09 50.47630 18.96481 2190 ft 137 kts 86°
2026-04-29 19:10 50.47626 18.97983 1998 ft 139 kts 86°
2026-04-29 19:10 50.47622 18.99521 1814 ft 139 kts 88°
2026-04-29 19:10 50.47617 19.01024 1623 ft 135 kts 88°
2026-04-29 19:10 50.47613 19.02478 1459 ft 133 kts 89°
2026-04-29 19:11 50.47610 19.03967 1286 ft 139 kts 89°
2026-04-29 19:11 50.47606 19.05476 1092 ft 138 kts 89°
2026-04-29 19:11 50.47604 19.06942 998 ft 125 kts 91°
2026-04-29 19:11 50.47599 19.08070 996 ft 82 kts 90°
2026-04-29 19:12 50.47599 19.08734 999 ft 40 kts 90°
2026-04-29 19:12 50.47600 19.08933 999 ft 0 kts 89°
2026-04-29 19:12 50.47599 19.08991 1000 ft 14 kts 90°
2026-04-29 19:12 50.47599 19.09050 1000 ft 19 kts 90°
2026-04-29 19:13 50.47484 19.09391 998 ft 8 kts 180°
2026-04-29 19:13 50.47423 19.09390 1001 ft 8 kts 181°
2026-04-29 19:13 50.47386 19.09389 1001 ft 0 kts 181°
2026-04-29 19:14 50.47382 19.09389 1000 ft 5 kts 181°
2026-04-29 19:14 50.47280 19.09387 1000 ft 13 kts 181°
2026-04-29 19:14 50.47264 19.09383 999 ft 1 kts 196°
2026-04-29 19:15 50.47255 19.09375 1000 ft 1 kts 212°
2026-04-29 19:15 50.47233 19.09327 1001 ft 13 kts 255°
2026-04-29 19:15 50.47231 19.09107 1003 ft 26 kts 270°
2026-04-29 19:15 50.47232 19.08824 1003 ft 25 kts 270°
2026-04-29 19:16 50.47232 19.08560 1001 ft 23 kts 270°
2026-04-29 19:16 50.47233 19.08310 1003 ft 23 kts 270°
2026-04-29 19:16 50.47233 19.08068 1002 ft 22 kts 270°
2026-04-29 19:16 50.47234 19.07832 1002 ft 21 kts 270°
2026-04-29 19:17 50.47235 19.07603 1000 ft 21 kts 270°
2026-04-29 19:17 50.47235 19.07381 1001 ft 20 kts 270°
2026-04-29 19:17 50.47236 19.07166 999 ft 19 kts 270°
2026-04-29 19:17 50.47235 19.06970 1002 ft 9 kts 270°
2026-04-29 19:18 50.47190 19.06919 997 ft 9 kts 181°
2026-04-29 19:18 50.47169 19.06919 997 ft 9 kts 179°
2026-04-29 19:18 50.47162 19.06919 997 ft 0 kts 179°